[TLELIST] Archives

 

[list_settings.list_name] Current TLEs

October 27th 2008 PDT

HST 1 20580U 90037B 08299.85209579 .00000372 00000-0 15967-4 0 2488 2 20580 028.4691 190.9752 0003554 329.1717 030.8652 15.00421139814628 ISS (ZARYA) 1 25544U 98067A 08299.47822959 .00007057 00000-0 56230-4 0 5146 2 25544 051.6433 068.4194 0003287 273.0486 194.3903 15.72483998569034 CXO 1 25867U 99040B 08299.79166667 +.00000423 +00000-0 +10000-3 0 02576 2 25867 064.3854 076.7774 7070555 277.5470 358.5898 00.37806224004124 ____________________________________________________________________ These 2-Line ...Continue Reading

[list_settings.list_name] Current TLEs

October 26th 2008 PDT

HST 1 20580U 90037B 08298.12264730 .00000406 00000-0 18561-4 0 2477 2 20580 028.4693 202.2569 0003624 310.3805 049.6465 15.00420718814364 ISS (ZARYA) 1 25544U 98067A 08298.52110068 .00010664 00000-0 82748-4 0 5075 2 25544 051.6421 073.3213 0003382 264.8229 180.7169 15.72447725568880 CXO 1 25867U 99040B 08297.12500000 +.00000417 +00000-0 +10000-3 0 02566 2 25867 064.3741 076.8652 7065710 277.5735 355.5110 00.37805914004114 ____________________________________________________________________ These 2-Line ...Continue Reading

[list_settings.list_name] Current TLEs

October 25th 2008 PDT

HST 1 20580U 90037B 08298.12264730 .00000406 00000-0 18561-4 0 2477 2 20580 028.4693 202.2569 0003624 310.3805 049.6465 15.00420718814364 ISS (ZARYA) 1 25544U 98067A 08297.83084929 .00009745 00000-0 76079-4 0 5027 2 25544 051.6421 076.8556 0003245 262.6192 232.9102 15.72427686568770 CXO 1 25867U 99040B 08297.12500000 +.00000417 +00000-0 +10000-3 0 02566 2 25867 064.3741 076.8652 7065710 277.5735 355.5110 00.37805914004114 ____________________________________________________________________ These 2-Line ...Continue Reading

[list_settings.list_name] Current TLEs

October 24th 2008 PDT

HST 1 20580U 90037B 08296.85881914 .00000413 00000-0 19128-4 0 2461 2 20580 028.4694 210.4988 0003595 296.0617 063.9600 15.00420218814173 ISS (ZARYA) 1 25544U 98067A 08297.24770179 .00009532 00000-0 74555-4 0 4964 2 25544 051.6425 079.8429 0003229 258.0694 174.2024 15.72414793568680 CXO 1 25867U 99040B 08297.12500000 +.00000417 +00000-0 +10000-3 0 02566 2 25867 064.3741 076.8652 7065710 277.5735 355.5110 00.37805914004114 ____________________________________________________________________ These 2-Line ...Continue Reading

[list_settings.list_name] Current TLEs

October 23rd 2008 PDT

HST 1 20580U 90037B 08294.92981888 +.00000389 +00000-0 +17268-4 0 02676 2 20580 028.4700 223.0814 0003671 274.8063 085.2106 15.00419154813885 ISS (ZARYA) 1 25544U 98067A 08294.84385456 +.00008558 +00000-0 +67552-4 0 04817 2 25544 051.6422 092.1567 0003332 245.2030 250.6762 15.72364267568302 CXO 1 25867U 99040B 08294.50000000 +.00000376 +00000-0 +10000-3 0 02553 2 25867 064.3719 076.9580 7057959 277.6109 358.1173 00.37799452004108 ____________________________________________________________________ These 2-Line ...Continue Reading

[list_settings.list_name] Current TLEs

October 22nd 2008 PDT

HST 1 20580U 90037B 08295.19588771 .00000400 00000-0 18149-4 0 2459 2 20580 028.4696 221.3439 0003628 278.2010 081.8168 15.00419328813923 ISS (ZARYA) 1 25544U 98067A 08293.82765131 +.00009329 +00000-0 +73265-4 0 04754 2 25544 051.6420 097.3623 0003277 240.8423 258.9744 15.72348513568144 CXO 1 25867U 99040B 08294.50000000 +.00000376 +00000-0 +10000-3 0 02553 2 25867 064.3719 076.9580 7057959 277.6109 358.1173 00.37799452004108 ____________________________________________________________________ These 2-Line ...Continue Reading

[list_settings.list_name] Current TLEs

October 21st 2008 PDT

HST 1 20580U 90037B 08293.26688690 .00000392 00000-0 17506-4 0 2441 2 20580 028.4703 233.9254 0003665 257.0231 102.9948 15.00418464813636 ISS (ZARYA) 1 25544U 98067A 08293.49465252 .00009634 00000-0 75528-4 0 4739 2 25544 051.6426 099.0680 0003330 240.3349 173.2976 15.72343569568090 CXO 1 25867U 99040B 08291.87500000 +.00000425 +00000-0 +10000-3 0 02549 2 25867 064.3609 077.0264 7052987 277.6814 000.6798 00.37796638004099 ____________________________________________________________________ These 2-Line ...Continue Reading

[list_settings.list_name] Current TLEs

October 20th 2008 PDT

HST 1 20580U 90037B 08291.93654150 +.00000409 +00000-0 +18813-4 0 02639 2 20580 028.4703 242.6041 0003752 242.3435 117.6773 15.00418004813434 ISS (ZARYA) 1 25544U 98067A 08293.05818407 .00009724 00000-0 76217-4 0 4696 2 25544 051.6423 101.3035 0003427 238.0030 223.3736 15.72335139568024 CXO 1 25867U 99040B 08291.87500000 +.00000425 +00000-0 +10000-3 0 02549 2 25867 064.3609 077.0264 7052987 277.6814 000.6798 00.37796638004099 ____________________________________________________________________ These 2-Line ...Continue Reading

[list_settings.list_name] Current TLEs

October 19th 2008 PDT

HST 1 20580U 90037B 08292.20261054 .00000388 00000-0 17189-4 0 2436 2 20580 028.4703 240.8660 0003677 245.6427 114.3777 15.00417942813476 ISS (ZARYA) 1 25544U 98067A 08291.52340378 .00013791 00000-0 10622-3 0 4598 2 25544 051.6416 109.1653 0003546 229.8945 178.2709 15.72317173567781 CXO 1 25867U 99040B 08291.87500000 +.00000425 +00000-0 +10000-3 0 02549 2 25867 064.3609 077.0264 7052987 277.6814 000.6798 00.37796638004099 ____________________________________________________________________ These 2-Line ...Continue Reading

[list_settings.list_name] Current TLEs

October 18th 2008 PDT

HST 1 20580U 90037B 08289.94102288 +.00000409 +00000-0 +18786-4 0 02478 2 20580 028.4703 255.6187 0003864 221.5556 138.4741 15.00417068813138 ISS (ZARYA) 1 25544U 98067A 08290.50497133 .00014617 00000-0 11241-3 0 4526 2 25544 051.6419 114.3833 0003459 227.5088 172.1737 15.72293287567624 CXO 1 25867U 99040B 08289.20833333 +.00000533 +00000-0 +10000-3 0 02530 2 25867 064.3418 077.1303 7051706 277.7032 357.6400 00.37806863004089 ____________________________________________________________________ These 2-Line ...Continue Reading
  • This mailing list is a public mailing list - anyone may join or leave, at any time.
  • This mailing list is announce-only.

International Space Station (ISS) / Hubble Space Telescope (HST) / Chandra X-Ray Observatory Orbital Data via EMAIL

Privacy Policy:

Private list